Wind_Speed
34 36 36 36 36 36 36 36 36 37 37 38 38 38 38 39 39 39 40 41 40 41 41 40 40 40 41 40 40 40 40 40 41 41 41 41 41 41
35 35 36 36 36 36 36 37 38 38 38 37 37 38 38 38 39 40 41 40 40 40 40 39 39 39 40 40 40 40 39 39 40 40 39 39 39 39
34 34 33 34 36 37 36 37 38 38 38 37 37 37 39 40 40 40 40 40 40 39 39 38 38 38 38 38 38 37 37 38 38 37 36 36 36 36
32 33 33 34 35 35 35 36 36 36 36 37 37 37 38 39 39 39 39 38 38 37 37 36 37 37 36 36 36 35 35 35 34 34 34 34 34 34
31 32 32 33 34 33 34 34 34 33 33 34 35 35 36 36 36 36 36 36 35 35 34 34 35 34 34 34 33 33 32 32 33 33 32 32 32 32
29 29 29 30 30 31 31 31 31 32 31 32 32 32 32 32 32 33 33 33 33 33 33 33 33 33 32 32 31 31 30 30 30 30 30 29 29 29
27 27 27 27 27 28 27 28 29 29 29 29 29 30 30 30 31 30 30 30 30 30 31 31 30 30 29 28 28 27 27 28 27 27 27 27 27 27
24 24 24 24 25 25 25 25 26 26 26 26 27 27 27 28 28 27 27 27 27 28 28 28 27 26 26 25 25 26 26 26 25 25 24 24 24 25
21 21 22 23 22 22 22 23 23 23 23 24 24 25 25 25 25 25 25 25 25 26 26 25 24 23 23 23 23 23 23 23 22 22 22 22 22 22
19 19 18 18 19 19 19 19 20 21 22 22 22 22 22 22 22 22 23 23 24 23 23 22 21 21 21 21 21 21 21 21 21 20 20 20 20 20
16 17 16 15 16 16 16 17 18 18 19 19 19 19 20 20 20 20 20 20 20 20 19 19 19 19 19 19 19 19 19 18 18 18 18 18 18 18
14 14 13 13 14 14 14 15 16 16 16 16 16 16 17 17 17 17 17 17 17 17 17 17 17 16 16 16 16 16 15 15 16 16 17 17 17 17
11 11 11 12 12 12 12 12 12 13 13 14 15 15 15 15 15 15 15 15 15 15 14 14 14 14 14 14 14 14 14 14 15 15 15 15 15 15
7 8 9 10 10 10 10 10 10 11 11 12 12 12 13 13 12 12 11 11 12 11 11 11 11 11 12 12 12 13 13 13 13 13 13 13 14 14
6 7 7 7 7 8 8 8 9 9 9 9 9 10 10 10 10 9 8 8 8 9 8 8 9 9 9 10 10 11 11 12 12 12 12 12 13 13
4 4 4 4 4 5 6 6 6 7 7 7 8 8 8 7 7 7 7 7 7 7 7 7 7 7 7 8 9 10 10 10 10 10 11 11 12 13
1 1 1 1 1 2 3 3 4 5 5 5 5 5 5 4 5 5 5 6 6 6 6 5 6 6 7 8 9 9 10 10 10 10 11 12 12 13
3 4 4 3 3 2 3 4 3 3 3 3 3 3 3 3 3 3 4 4 4 4 4 5 6 7 7 8 9 9 10 10 11 11 11 12 12 13
6 6 5 5 4 4 4 4 3 3 3 3 3 3 2 2 2 2 2 3 3 3 4 5 6 7 8 9 9 9 10 11 11 11 12 12 13 13
8 7 6 6 6 5 5 5 5 5 4 4 3 3 2 2 2 2 2 2 3 4 5 6 7 8 9 10 10 10 11 11 12 12 13 13 14 15
10 9 9 8 8 7 7 6 6 6 5 5 4 4 4 3 3 3 3 3 4 5 6 7 8 9 10 10 11 12 12 12 13 13 14 15 15 16
11 11 10 10 9 8 8 7 7 7 6 6 5 5 4 4 4 4 4 4 5 6 7 8 9 10 10 11 12 13 13 14 14 15 16 16 17 17
12 11 11 10 10 9 9 8 8 7 7 6 6 5 5 5 5 5 5 6 7 8 9 10 10 11 12 12 13 13 14 15 16 16 17 18 18 19
Wind_Direction
256 255 254 252 252 251 252 254 254 254 257 260 261 263 263 263 265 266 268 270 272 275 276 277 279 281 284 285 286 286 287 287 288 288 288 287 288 289
256 255 254 253 251 253 254 254 256 258 259 258 260 261 262 263 265 266 269 270 274 276 277 278 280 282 285 286 286 287 287 288 288 288 288 289 289 290
255 254 254 254 254 254 254 255 255 256 257 258 260 263 263 266 268 269 271 272 275 276 277 279 281 283 284 285 286 287 288 288 288 288 290 291 292 293
255 256 256 255 256 256 255 255 256 257 259 261 263 266 267 269 270 271 273 274 275 276 278 281 283 284 284 285 287 288 289 290 290 290 291 291 293 294
258 258 257 256 256 258 259 259 259 260 262 264 265 266 267 269 271 273 275 275 276 278 280 282 283 283 284 286 288 289 289 290 291 291 292 292 293 295
259 259 259 259 260 261 261 260 260 261 262 264 264 265 267 271 272 273 275 277 278 280 280 281 282 283 285 286 287 288 289 291 292 292 293 293 294 295
259 259 260 259 259 260 261 261 261 261 262 263 265 266 268 271 272 274 275 277 279 280 280 281 282 283 284 286 287 288 290 291 292 293 293 294 295 296
258 258 258 259 259 259 261 261 261 262 262 264 265 267 269 271 272 273 275 277 277 278 279 281 283 284 284 284 286 288 290 291 292 293 294 295 296 298
258 259 259 259 258 260 261 262 263 264 264 264 265 268 270 271 272 273 275 276 277 279 280 282 284 284 284 286 289 290 292 292 294 294 296 298 299 301
258 260 262 260 262 263 264 265 264 265 266 266 266 268 270 272 275 276 277 278 279 279 280 282 284 285 287 288 289 290 292 293 294 295 297 299 300 302
258 260 261 262 263 264 266 269 270 270 269 270 270 270 273 275 276 277 277 278 280 280 281 284 285 287 288 289 290 291 292 293 294 296 298 300 301 303
255 258 260 260 263 266 269 273 273 273 273 274 275 275 275 274 277 278 279 280 281 282 283 284 285 287 288 289 291 293 293 294 295 297 299 301 303 305
256 259 260 261 262 263 266 271 274 275 274 275 276 274 275 277 277 279 279 280 282 283 282 282 282 284 286 290 292 292 294 296 297 298 301 304 306 309
258 264 264 263 262 264 270 276 281 281 281 280 280 279 282 282 282 282 282 283 282 282 281 280 282 285 288 290 291 294 297 299 300 302 305 307 309 312
260 265 267 266 270 274 278 282 284 286 287 286 286 286 286 284 282 282 283 283 282 281 280 280 283 289 290 292 295 299 302 304 305 306 309 312 314 316
260 266 275 279 287 287 289 286 286 289 292 292 288 286 284 280 279 281 282 282 283 282 281 282 283 288 292 295 298 302 305 309 312 313 315 317 318 319
42 355 335 338 328 321 321 316 309 309 305 300 294 290 283 279 284 283 280 282 283 285 285 283 287 293 296 297 299 303 308 312 315 316 318 318 319 320
81 80 72 63 50 28 1 352 342 336 333 327 324 320 316 299 293 293 291 293 290 287 286 290 298 302 301 302 304 307 311 313 315 317 318 319 320 321
78 73 66 57 48 37 30 25 23 22 22 16 9 0 351 339 320 309 310 306 299 296 296 300 304 307 307 307 307 308 310 312 314 316 317 317 318 319
73 69 65 60 57 55 54 52 51 50 47 42 38 32 28 21 8 352 339 327 316 312 311 312 312 311 310 308 308 309 311 311 312 313 315 315 315 316
72 71 68 64 62 61 60 60 58 56 56 55 53 49 40 34 25 13 357 343 332 324 320 318 317 315 312 309 308 309 310 310 310 311 312 312 313 314
72 70 67 66 64 63 63 63 62 62 61 58 53 48 44 39 28 16 0 346 337 330 325 322 319 316 314 312 310 310 310 309 309 310 309 310 310 311
68 67 66 65 64 63 63 64 64 61 58 56 53 47 38 26 15 2 350 341 334 329 326 324 321 318 316 315 314 313 312 310 309 309 310 310 310 311
Height
5781 5782 5783 5785 5786 5788 5789 5790 5791 5792 5792 5793 5794 5794 5794 5794 5794 5794 5794 5793 5792 5791 5790 5789 5788 5786 5785 5783 5781 5779 5777 5775 5772 5770 5767 5764 5761 5758
5773 5774 5775 5776 5777 5778 5780 5781 5782 5783 5783 5784 5784 5785 5785 5785 5785 5785 5784 5783 5782 5782 5781 5779 5778 5777 5775 5773 5772 5770 5767 5765 5762 5760 5757 5754 5752 5749
5764 5765 5766 5768 5769 5770 5771 5772 5773 5773 5774 5774 5775 5775 5776 5776 5775 5775 5774 5773 5773 5772 5771 5770 5769 5767 5766 5764 5762 5760 5758 5755 5753 5750 5748 5745 5743 5740
5756 5757 5758 5759 5760 5761 5762 5763 5764 5764 5765 5765 5766 5766 5766 5766 5766 5765 5765 5764 5763 5762 5762 5761 5760 5758 5757 5755 5753 5750 5748 5746 5744 5742 5739 5737 5734 5731
5748 5749 5750 5751 5752 5752 5753 5754 5755 5756 5756 5757 5757 5758 5758 5758 5757 5757 5756 5755 5754 5754 5753 5752 5751 5749 5747 5746 5744 5742 5740 5738 5736 5733 5731 5729 5726 5723
5740 5741 5742 5743 5744 5745 5745 5746 5747 5748 5748 5749 5749 5749 5749 5749 5749 5748 5748 5747 5746 5745 5744 5743 5742 5740 5739 5737 5736 5734 5732 5730 5728 5726 5723 5721 5719 5716
5733 5734 5735 5736 5736 5737 5738 5739 5740 5740 5740 5741 5741 5741 5741 5741 5741 5740 5740 5739 5738 5737 5736 5735 5734 5732 5731 5729 5728 5726 5725 5723 5721 5719 5717 5714 5712 5709
5726 5726 5727 5728 5729 5730 5731 5732 5732 5733 5733 5734 5734 5734 5734 5734 5733 5733 5732 5732 5731 5731 5729 5728 5726 5725 5724 5723 5721 5720 5718 5716 5714 5712 5710 5708 5706 5703
5720 5721 5721 5722 5723 5724 5724 5725 5725 5726 5727 5727 5727 5727 5727 5727 5726 5726 5725 5725 5724 5723 5722 5721 5720 5719 5717 5716 5715 5713 5712 5710 5708 5706 5705 5703 5700 5698
5714 5715 5716 5716 5717 5718 5719 5719 5720 5720 5720 5720 5721 5721 5721 5721 5720 5719 5719 5718 5717 5717 5716 5715 5714 5713 5712 5710 5709 5708 5706 5705 5703 5701 5700 5698 5695 5693
5710 5710 5711 5712 5713 5713 5714 5714 5714 5715 5715 5715 5715 5715 5715 5715 5714 5713 5713 5712 5712 5711 5710 5709 5708 5708 5707 5705 5704 5703 5701 5700 5698 5697 5695 5693 5690 5688
5706 5706 5707 5708 5709 5709 5710 5710 5710 5710 5710 5710 5710 5710 5710 5709 5709 5708 5707 5707 5706 5706 5705 5704 5704 5703 5702 5701 5700 5698 5697 5696 5694 5693 5691 5689 5686 5683
5702 5703 5704 5704 5705 5705 5706 5706 5706 5706 5706 5706 5705 5705 5705 5704 5704 5703 5703 5702 5702 5701 5701 5700 5700 5699 5698 5697 5696 5695 5693 5692 5690 5689 5687 5685 5682 5680
5700 5700 5701 5701 5702 5702 5703 5702 5702 5702 5702 5701 5701 5701 5700 5700 5700 5699 5699 5698 5698 5698 5697 5697 5696 5696 5695 5694 5693 5692 5690 5689 5687 5685 5683 5681 5679 5677
5698 5698 5698 5699 5699 5700 5700 5700 5700 5699 5699 5698 5698 5698 5697 5697 5696 5696 5696 5696 5695 5695 5694 5694 5694 5693 5692 5691 5690 5689 5688 5686 5684 5682 5680 5678 5676 5674
5696 5696 5697 5697 5698 5698 5698 5698 5697 5697 5696 5696 5696 5695 5695 5695 5694 5694 5694 5694 5693 5693 5692 5692 5691 5691 5690 5689 5688 5687 5685 5684 5682 5680 5678 5676 5673 5671
5695 5696 5696 5696 5697 5696 5696 5696 5696 5695 5695 5695 5694 5694 5693 5693 5693 5692 5692 5692 5691 5691 5691 5690 5690 5689 5688 5688 5686 5685 5683 5681 5680 5678 5676 5673 5671 5668
5696 5696 5696 5696 5696 5696 5696 5695 5695 5695 5694 5694 5693 5693 5692 5692 5692 5691 5691 5690 5690 5690 5690 5689 5689 5688 5687 5686 5685 5683 5681 5679 5677 5675 5673 5671 5669 5666
5697 5697 5697 5697 5697 5696 5696 5696 5695 5694 5694 5693 5693 5692 5692 5691 5691 5691 5690 5690 5690 5689 5689 5688 5687 5686 5685 5684 5683 5681 5679 5677 5675 5673 5671 5669 5666 5664
5699 5698 5698 5698 5698 5697 5697 5696 5696 5695 5695 5694 5694 5693 5692 5692 5691 5691 5690 5690 5689 5689 5688 5687 5686 5684 5683 5682 5680 5679 5677 5675 5673 5671 5668 5666 5663 5661
5701 5701 5700 5700 5699 5699 5698 5698 5697 5697 5696 5695 5695 5694 5693 5693 5692 5691 5691 5690 5689 5688 5687 5686 5684 5683 5681 5680 5678 5676 5674 5672 5670 5668 5666 5663 5660 5658
5704 5703 5703 5702 5702 5701 5700 5700 5699 5698 5698 5697 5696 5695 5694 5694 5693 5692 5691 5690 5689 5687 5686 5684 5683 5681 5679 5677 5675 5673 5671 5669 5667 5665 5662 5660 5657 5654
5707 5707 5706 5705 5704 5703 5703 5702 5701 5700 5699 5698 5698 5697 5696 5695 5694 5692 5691 5690 5688 5687 5685 5683 5681 5679 5677 5675 5673 5671 5668 5666 5663 5661 5659 5656 5653 5650